Lapse_Rate
5.2 5.2 5.1 5.4 5.6 5.5 6.3 6.9 6.6 6.4 6.0 6.1 5.5 6.1 6.2 6.1 6.0 6.3 6.1 5.8 5.5 5.7 5.7 5.6 5.7 5.9 6.0 5.9 5.8 5.7 5.8 5.9 6.1 6.0 6.1 6.0 6.2 6.1 6.1 6.1 6.2 6.2 6.2 6.3 6.3 6.2 6.2 6.3 6.2
5.0 5.1 5.2 5.1 5.2 5.8 6.4 6.9 7.1 6.4 5.8 5.6 6.0 6.4 6.5 6.4 6.3 6.6 6.4 5.6 5.7 5.8 5.7 5.7 5.9 6.1 6.0 5.8 5.8 5.8 5.8 5.9 6.0 6.1 6.0 6.1 6.1 6.1 6.1 6.1 6.3 6.3 6.2 6.4 6.5 6.3 6.3 6.2 6.3
5.0 5.5 5.0 5.2 4.8 6.2 5.7 6.5 7.1 6.1 6.2 6.1 6.3 6.1 6.3 6.7 6.2 6.6 6.0 5.8 5.8 5.7 5.7 5.9 6.0 5.9 5.8 5.8 5.7 5.7 5.7 5.8 6.1 6.1 6.1 6.1 6.2 6.2 6.2 6.3 6.4 6.4 6.4 6.5 6.6 6.5 6.3 6.3 6.3
5.3 5.3 4.7 5.1 5.6 6.3 5.9 6.7 6.4 6.2 5.9 6.0 6.1 5.1 5.2 5.6 6.6 6.1 5.8 5.9 5.8 5.8 5.8 5.9 5.9 5.9 5.9 5.7 5.5 5.6 5.7 5.9 6.2 6.3 6.2 6.2 6.2 6.4 6.4 6.4 6.5 6.4 6.6 6.8 6.5 6.4 6.4 6.4 6.3
5.7 5.0 5.1 5.5 5.8 6.5 6.8 6.8 6.1 6.0 5.9 5.5 5.6 4.7 4.9 5.0 6.0 5.8 5.7 5.6 5.8 6.0 5.9 6.0 6.0 6.0 6.0 5.7 5.4 5.6 5.8 6.1 6.3 6.3 6.1 6.2 6.3 6.4 6.5 6.6 6.5 6.5 6.4 6.9 6.6 6.6 6.5 6.5 6.3
5.3 5.6 5.6 5.9 6.4 6.5 6.6 6.5 6.2 6.2 6.0 5.4 5.6 5.1 4.8 4.9 5.3 5.3 5.9 5.7 5.8 5.8 6.0 6.0 6.1 6.1 5.9 5.8 5.7 5.8 5.9 6.1 6.2 6.2 6.1 6.1 6.2 6.4 6.5 6.6 6.6 6.5 6.4 6.6 6.5 6.4 6.4 6.5 6.3
5.4 5.4 5.6 6.1 6.5 6.6 6.5 6.1 5.4 5.8 5.9 5.5 5.5 5.2 4.6 4.5 4.9 5.2 5.4 5.5 5.7 5.6 5.9 6.0 6.1 6.1 6.0 5.9 5.9 5.9 5.9 6.1 6.3 6.3 6.3 6.3 6.2 6.4 6.5 6.6 6.7 6.6 6.4 6.4 6.4 6.4 6.3 6.2 6.2
5.2 5.3 5.9 5.8 6.1 6.2 6.4 6.2 5.4 6.2 5.4 5.2 5.6 5.3 4.7 4.7 4.6 4.9 5.2 5.5 5.7 5.6 5.8 6.0 6.1 6.2 6.1 6.1 6.0 6.0 6.0 6.1 6.2 6.2 6.3 6.4 6.5 6.4 6.4 6.5 6.5 6.5 6.7 6.6 6.5 6.4 6.4 6.3 6.2
5.0 5.3 5.8 6.2 6.1 5.7 6.0 6.2 5.7 5.6 5.3 5.3 5.0 5.4 5.0 4.6 4.6 4.5 5.0 5.2 5.3 5.6 5.6 5.7 5.8 6.0 6.1 6.0 6.0 5.9 6.0 6.1 6.1 6.1 6.1 6.3 6.2 6.2 6.4 6.3 6.5 6.5 6.5 6.5 6.5 6.3 6.4 6.3 6.0
5.1 5.8 5.3 6.1 5.9 6.2 6.4 5.9 5.9 5.4 5.2 5.3 5.2 5.1 4.7 4.6 5.2 5.3 5.3 5.6 5.7 5.9 6.1 6.0 5.7 5.9 6.2 6.1 5.9 5.9 5.7 5.7 6.1 5.9 6.1 6.4 6.3 6.1 6.3 6.4 6.4 6.3 6.6 6.5 6.4 6.1 6.2 6.0 5.9
6.0 6.0 6.3 6.3 5.7 6.0 5.7 5.7 6.3 5.7 5.3 6.2 5.7 5.1 4.7 5.1 4.7 5.0 5.0 5.3 5.3 5.9 6.0 5.9 6.0 5.7 6.0 6.0 5.7 5.9 5.7 5.6 5.8 5.9 6.2 6.2 6.4 6.5 6.3 6.3 6.2 6.2 6.4 6.1 5.9 5.6 5.9 5.8 5.9
6.3 6.6 5.9 5.6 6.3 5.6 5.8 5.9 6.0 5.8 5.2 5.2 5.6 5.2 4.8 4.7 5.1 4.9 4.9 5.0 5.2 5.6 5.5 5.3 5.8 5.9 6.1 5.9 6.1 6.3 6.0 5.9 5.8 5.8 6.2 6.0 5.9 6.1 6.2 6.0 6.1 6.3 6.5 6.1 6.3 6.5 5.9 5.3 5.4
7.1 6.6 5.8 6.0 6.4 5.5 5.8 5.9 6.2 6.1 5.3 4.9 5.3 5.2 4.9 4.8 5.0 5.0 4.9 5.4 5.8 5.8 5.5 5.4 5.6 6.1 5.8 6.0 6.1 5.8 5.6 5.7 5.7 5.8 5.8 5.7 5.7 6.0 6.1 5.7 6.0 6.7 6.2 6.5 6.5 6.2 6.1 6.0 5.8
8.1 6.6 5.7 6.3 6.5 6.0 6.0 6.1 5.9 5.6 5.6 4.6 5.0 4.8 4.9 4.8 4.8 5.3 5.0 5.3 5.4 5.5 6.1 5.8 5.7 5.9 5.9 5.9 6.0 5.6 5.3 5.5 5.6 5.7 5.7 5.8 5.9 6.1 6.1 6.2 6.1 6.2 6.1 6.2 5.9 6.3 5.9 5.6 5.6
7.0 7.0 5.9 5.9 6.7 6.3 5.8 5.7 5.6 5.7 5.5 5.0 5.2 4.7 4.8 5.0 4.9 5.3 4.9 5.2 5.6 5.9 5.6 5.6 5.9 5.8 5.6 5.8 5.9 5.4 5.4 5.4 5.4 5.5 5.5 5.8 5.7 5.7 6.0 6.3 6.2 5.7 5.7 6.3 6.3 5.8 6.2 5.6 6.0
7.2 7.0 6.0 5.8 6.0 6.3 5.6 5.8 5.5 5.4 5.3 5.2 5.3 5.2 4.8 5.0 5.1 5.0 5.1 5.0 5.7 5.8 5.3 5.6 5.7 5.5 5.8 5.4 5.6 5.7 5.8 5.7 5.7 5.6 5.5 5.5 5.4 5.3 6.0 6.1 6.2 5.9 5.6 5.4 6.0 6.2 5.6 5.1 5.4
7.1 6.9 6.7 5.9 6.0 6.7 5.5 5.5 5.7 5.9 5.3 5.1 4.9 5.2 5.0 4.8 5.0 5.2 5.1 5.1 5.5 6.0 5.5 5.8 6.1 5.7 5.9 5.6 5.6 6.0 5.9 5.7 5.6 5.6 5.6 5.5 5.3 5.8 5.9 5.9 6.0 6.0 5.9 5.7 5.6 5.6 5.5 5.3 5.0
7.3 7.7 7.6 7.4 6.0 6.2 5.9 6.5 6.0 5.9 5.6 4.9 5.2 5.4 5.2 4.9 5.0 5.4 5.0 5.3 5.9 6.0 5.7 5.9 6.2 6.0 5.8 6.0 5.5 5.6 5.7 5.6 5.6 5.7 5.6 5.6 5.6 5.7 5.8 5.9 5.9 5.8 5.9 5.6 5.4 5.3 5.4 5.5 5.2
7.8 8.2 8.1 7.3 6.3 6.2 6.5 6.1 5.7 5.5 5.8 5.1 5.4 5.5 5.4 5.2 5.1 5.3 5.1 5.4 5.8 5.9 5.9 5.9 6.0 6.0 5.9 5.8 5.7 5.9 5.6 5.5 5.7 5.5 5.7 5.8 5.8 5.7 5.6 5.7 6.1 5.5 5.6 5.6 5.8 5.9 5.6 5.5 5.7
7.6 8.1 7.0 6.7 5.8 6.1 6.6 5.7 5.1 5.6 5.6 5.3 5.2 5.2 5.5 5.3 5.2 5.2 5.1 5.6 5.8 5.8 6.0 6.0 5.7 5.5 5.5 5.7 5.8 6.0 6.1 6.0 5.8 5.7 5.7 5.8 5.7 5.8 5.6 5.8 5.8 5.4 5.7 6.0 6.0 6.1 5.7 5.9 6.0
7.9 7.8 7.6 6.5 6.7 6.2 5.9 5.7 5.2 5.4 5.6 5.3 5.3 5.2 5.6 5.6 5.4 5.3 5.2 5.7 5.7 5.7 5.9 6.1 6.0 5.6 5.6 5.6 5.6 5.5 5.8 5.7 5.8 5.8 5.9 5.8 5.7 5.8 5.9 6.0 5.9 5.6 5.6 6.0 5.7 6.0 5.7 5.9 5.7
8.1 8.9 7.9 8.2 7.6 6.3 6.7 5.5 5.1 5.2 5.6 5.1 5.3 5.1 5.3 5.5 5.5 5.2 5.0 5.3 5.6 5.7 5.8 6.1 6.0 5.9 5.9 5.7 5.6 5.6 5.5 5.8 6.0 5.6 5.7 5.8 5.9 5.7 6.0 5.8 5.6 5.5 5.7 6.1 5.8 6.0 6.2 5.9 5.8
8.3 8.8 8.8 8.1 7.5 7.1 6.5 6.8 6.4 5.8 6.0 5.4 5.6 5.4 5.2 5.6 5.6 5.3 4.9 5.4 5.5 5.4 5.8 6.1 6.0 6.1 5.9 5.5 5.8 6.0 5.6 5.8 5.9 5.8 5.8 5.8 5.9 5.8 5.7 5.9 5.9 5.4 5.7 5.8 5.8 6.2 6.1 5.8 5.9
8.8 9.3 7.8 7.9 7.4 5.9 7.7 7.7 5.9 5.6 6.1 6.0 6.1 5.6 5.4 5.3 5.3 5.4 5.4 5.5 5.5 5.4 5.5 5.8 5.9 6.2 6.2 5.9 6.0 5.6 5.9 5.9 5.8 5.8 6.0 5.6 5.7 5.7 5.8 5.9 5.9 5.6 5.5 5.6 5.7 5.9 6.0 6.1 5.9
8.5 8.7 8.6 7.8 5.4 6.8 8.6 7.7 6.4 5.1 5.5 5.4 5.4 5.6 5.6 5.3 5.6 5.3 5.6 5.1 5.7 5.7 5.5 5.5 5.9 6.1 6.3 6.2 6.1 6.1 5.9 5.9 5.9 6.1 6.1 5.9 5.9 5.8 5.9 5.8 5.6 5.8 5.9 5.9 5.8 6.2 6.0 6.1 6.0
8.5 8.8 8.7 7.4 7.6 8.6 8.9 7.2 6.2 5.8 5.5 6.0 5.7 5.0 5.9 5.6 5.4 5.3 5.6 5.5 5.5 5.6 5.9 5.6 5.7 5.9 6.0 6.1 6.1 6.2 6.0 5.8 6.1 6.0 6.3 6.0 5.7 5.8 5.9 5.7 5.7 5.6 6.2 6.3 6.0 6.1 6.1 5.9 5.9
8.7 8.7 8.9 8.6 9.0 9.0 7.1 6.1 6.0 6.3 6.1 6.1 5.5 5.6 5.8 5.8 5.9 5.9 5.7 5.6 5.1 5.6 6.0 5.5 5.4 5.7 5.7 5.8 5.8 6.1 6.1 6.3 6.1 6.2 6.3 5.8 5.8 5.8 5.9 6.0 6.0 5.7 5.8 6.2 6.3 6.2 6.1 6.0 5.9
8.5 8.2 8.8 8.8 7.7 8.2 7.2 6.5 6.2 6.0 6.4 6.7 6.4 6.1 5.6 5.7 6.2 6.0 5.6 6.1 5.7 5.5 6.2 6.0 5.7 5.4 5.2 5.7 5.6 5.9 5.9 6.0 6.1 6.1 6.0 6.2 5.7 6.0 6.1 6.0 6.1 5.9 5.9 6.0 6.2 6.2 6.2 6.1 5.8
8.3 8.0 8.3 8.3 8.5 7.5 6.8 6.6 6.4 6.4 6.5 6.8 6.5 6.1 5.9 5.8 6.5 6.4 5.9 6.0 6.1 5.3 5.9 5.8 5.8 6.1 5.6 5.3 5.0 5.4 5.8 5.7 6.0 6.0 5.7 6.1 6.4 6.1 6.4 6.1 6.4 5.9 6.0 5.9 6.0 6.1 6.3 6.3 6.2
8.5 8.5 8.4 8.3 8.3 8.9 8.1 6.2 6.0 6.1 6.1 6.0 6.1 5.9 5.9 6.0 6.4 6.7 6.6 6.3 5.8 5.9 5.8 5.5 5.9 5.9 5.5 6.0 5.6 5.6 5.6 5.6 5.7 5.9 5.7 5.8 6.1 6.0 6.1 6.0 5.8 5.8 6.4 6.3 6.1 6.0 6.0 6.2 6.2
Wind_Speed
11 11 4 1 2 2 3 4 18 19 13 14 11 13 9 11 4 5 15 18 18 14 16 16 17 17 16 15 14 14 14 15 14 16 17 17 17 17 18 18 19 19 19 20 18 16 17 16 17
8 8 1 1 1 4 2 2 16 22 20 15 21 23 22 15 18 19 17 21 20 18 16 15 17 16 15 14 15 14 14 14 14 14 16 16 15 16 17 19 18 18 18 19 18 16 15 14 15
3 8 2 1 1 2 3 3 14 19 20 18 16 14 8 21 20 9 21 23 22 17 17 17 18 16 14 15 15 14 13 14 14 15 14 16 15 15 16 19 18 17 17 17 17 14 13 12 13
4 1 3 2 9 2 7 11 16 24 24 26 24 19 18 21 15 21 24 21 18 17 18 17 18 16 16 14 16 15 14 14 14 15 15 14 14 16 16 17 17 16 16 15 15 12 11 10 8
3 1 3 2 7 5 8 9 18 22 19 23 25 24 23 21 25 25 23 20 19 15 18 17 18 16 16 15 15 14 14 15 12 14 16 15 16 15 17 16 15 14 14 16 14 12 9 8 6
1 2 0 5 8 8 7 15 21 20 20 20 26 24 17 20 23 23 21 20 19 16 18 16 17 16 16 17 15 15 15 15 14 16 16 17 16 16 17 16 14 14 15 15 13 12 8 5 3
1 2 3 6 9 15 7 11 10 20 22 16 23 26 13 16 18 23 22 20 18 20 17 14 15 15 14 16 15 15 15 14 15 16 16 16 17 16 17 16 14 16 15 13 11 10 8 6 3
2 4 3 0 5 4 6 6 10 14 9 21 24 16 16 13 21 19 20 20 17 14 17 15 16 16 13 13 14 14 15 15 14 14 14 16 17 17 16 14 13 14 13 11 9 7 5 4 5
4 3 7 2 9 2 4 10 4 8 20 17 10 16 17 25 24 17 16 18 14 12 12 15 13 15 15 14 12 12 13 14 15 15 15 16 17 16 14 11 12 12 11 8 6 4 2 2 4
4 3 4 7 2 9 6 9 9 6 11 12 22 17 16 20 22 14 15 12 12 13 14 12 12 13 16 13 14 13 12 11 13 13 13 10 13 17 13 10 10 9 9 7 5 4 4 5 6
7 6 15 20 8 11 12 9 4 8 12 24 25 22 16 24 18 20 14 18 18 13 8 13 10 11 9 11 8 11 11 13 9 13 11 8 16 15 14 9 6 5 7 4 8 8 6 9 12
9 15 7 10 12 13 9 6 6 11 2 9 22 18 14 24 21 19 14 15 16 11 9 6 12 11 5 8 3 3 9 12 10 12 11 16 12 10 10 9 10 7 4 3 3 4 5 13 14
8 11 13 16 18 9 14 9 8 10 5 16 19 17 11 9 18 18 17 18 17 15 10 7 15 6 3 3 3 6 3 4 13 12 13 14 6 6 10 10 9 8 7 5 7 4 5 9 12
7 16 5 18 16 14 16 11 4 9 11 16 19 15 11 9 14 19 20 16 11 14 14 11 15 11 10 3 5 5 5 7 4 9 10 9 10 11 8 7 7 8 8 10 8 5 3 6 4
11 7 8 17 17 16 18 6 6 7 4 9 17 15 11 9 16 19 18 15 16 13 15 11 17 15 9 7 11 8 3 6 5 8 10 15 8 7 8 6 6 12 9 6 9 4 5 3 3
7 10 7 7 17 13 6 6 5 2 7 4 13 15 12 8 21 15 12 11 15 15 13 12 13 18 15 10 6 4 7 3 10 4 11 9 9 8 8 4 5 10 5 4 1 3 2 4 4
7 8 10 15 15 11 7 7 8 4 6 11 18 15 11 10 18 16 14 9 15 13 11 7 14 9 10 13 10 7 8 6 10 4 8 9 6 7 8 2 2 9 3 5 2 1 2 2 1
7 7 7 15 14 11 9 6 13 7 9 22 17 13 10 13 16 17 15 10 15 10 9 8 8 8 8 9 8 5 4 8 9 9 7 7 5 7 6 4 3 5 4 1 1 2 2 2 1
12 10 10 11 10 10 6 8 12 5 6 13 12 9 9 12 11 15 14 14 13 9 8 8 10 7 5 3 5 5 4 3 2 5 9 9 7 7 6 5 2 5 3 2 1 1 2 2 0
15 3 7 10 7 12 13 6 4 8 6 11 9 11 12 9 11 12 14 14 12 10 8 9 8 8 5 3 2 3 4 3 3 7 9 8 10 12 8 4 4 5 2 1 2 2 3 2 1
12 7 16 8 8 8 10 4 2 2 5 9 14 11 16 12 12 13 14 16 14 12 9 10 8 8 5 6 5 3 4 1 2 2 4 7 11 9 8 7 8 5 2 1 2 1 3 1 3
9 1 24 23 12 6 14 4 4 6 2 5 13 11 5 13 15 11 11 16 15 13 12 10 8 7 4 5 4 5 4 3 0 2 3 4 12 6 7 7 8 5 4 1 2 1 2 3 4
10 22 24 12 6 6 16 4 3 9 8 8 12 15 14 13 14 8 14 17 17 16 13 12 10 7 5 3 6 5 5 3 2 2 6 3 4 9 10 8 9 4 3 1 2 3 4 3 3
9 5 13 5 5 3 14 6 4 9 8 6 15 16 18 14 17 10 14 16 16 15 12 11 12 7 7 7 5 7 7 6 4 1 3 4 3 3 7 10 8 6 0 1 1 2 4 3 3
7 3 2 2 3 11 17 6 1 16 16 12 14 23 13 8 17 8 11 12 18 17 15 13 12 8 7 7 6 7 7 3 6 6 4 4 2 1 4 4 5 4 5 3 2 3 1 2 2
5 7 5 4 6 6 10 6 6 17 16 18 16 6 8 1 8 5 9 2 10 16 16 15 13 11 8 7 7 7 8 5 4 5 3 4 3 2 3 6 7 7 8 6 5 1 2 2 2
6 4 9 3 6 3 4 8 8 11 10 9 6 12 11 10 8 4 9 9 2 8 12 13 14 12 12 9 6 7 8 7 6 7 5 4 5 3 2 1 6 7 7 6 5 2 1 2 2
3 5 5 3 2 2 4 6 7 12 10 9 8 10 12 5 11 11 9 9 7 8 11 12 9 8 2 9 7 6 7 7 6 5 7 8 6 6 5 4 2 5 7 7 5 2 2 1 3
1 4 2 1 1 4 5 2 3 9 8 11 10 8 8 9 10 9 8 6 8 5 15 12 12 12 11 9 12 7 7 7 6 5 4 11 6 6 6 6 5 5 6 5 5 4 2 4 4
5 7 4 4 8 3 5 3 3 10 10 10 9 9 6 11 12 9 8 9 7 8 8 7 6 8 5 4 11 13 7 7 7 7 6 11 8 5 6 5 7 6 6 6 6 6 4 5 5
Wind_Direction
170 177 196 288 27 309 226 256 98 90 90 74 97 103 113 131 137 148 147 127 128 128 134 126 119 117 115 114 111 105 100 98 96 92 95 96 95 94 93 94 93 95 92 97 98 99 99 106 103
185 194 188 220 68 226 229 335 85 96 97 88 90 86 78 83 104 119 119 131 127 133 128 129 125 120 120 118 111 108 103 101 102 99 100 98 95 95 93 98 92 92 92 97 100 99 100 100 98
262 257 101 335 157 155 115 296 95 85 92 87 95 81 82 115 122 107 130 129 138 130 129 134 125 123 122 117 113 108 110 106 110 112 107 107 105 102 97 96 97 94 96 95 96 97 97 98 93
190 247 94 253 214 181 164 125 115 100 96 99 108 94 114 112 107 126 134 133 117 120 126 132 127 125 115 117 111 115 111 107 105 110 111 111 110 101 102 100 99 95 97 104 98 96 95 90 82
226 155 129 127 149 107 116 132 89 94 99 104 104 113 109 117 126 134 128 123 122 119 130 135 130 125 120 117 113 113 116 113 113 113 112 119 113 114 108 104 100 99 103 109 111 101 90 85 62
223 241 93 108 122 111 72 75 92 97 110 107 106 114 120 131 132 130 127 122 124 132 130 130 128 126 124 122 118 120 118 115 111 113 115 114 114 111 112 108 105 106 114 118 118 113 112 107 119
210 47 325 113 96 101 90 55 45 115 117 108 121 121 135 145 134 126 127 130 133 133 128 132 125 126 125 121 123 123 123 121 121 118 119 115 116 119 113 111 109 109 117 119 120 130 140 150 147
201 12 2 109 130 119 56 89 70 101 120 121 128 137 149 133 129 131 134 129 132 135 138 135 135 128 130 123 126 130 130 129 128 126 126 126 121 119 118 116 116 120 121 123 129 139 153 173 175
85 69 329 295 156 158 79 105 79 324 143 135 137 143 145 132 129 125 126 126 136 139 138 140 147 141 137 133 136 136 132 139 138 133 135 136 131 130 119 125 123 118 120 121 122 121 127 259 276
108 88 315 263 301 151 139 114 116 150 150 129 135 142 148 125 123 124 132 134 138 146 147 138 139 142 148 142 151 150 147 152 146 146 157 159 140 135 134 138 129 129 124 131 148 173 200 252 262
144 141 239 271 198 135 146 77 31 153 125 144 143 151 166 136 140 138 158 141 142 129 115 130 138 147 91 120 158 169 168 176 177 166 160 154 139 135 146 152 138 151 140 166 214 216 251 259 271
142 181 194 150 141 132 111 97 60 73 172 171 141 160 169 145 157 153 152 121 119 118 127 124 120 105 93 96 115 238 190 177 176 168 167 138 150 141 160 164 166 179 163 137 109 88 265 257 257
190 162 180 139 110 69 113 111 118 101 237 146 146 168 171 167 157 141 125 132 127 134 135 125 105 100 331 26 323 352 308 157 169 165 160 148 158 158 176 200 175 157 128 119 71 34 314 354 59
91 123 193 139 130 136 118 119 122 182 244 158 162 170 178 168 141 130 132 139 142 143 134 140 134 167 174 178 255 228 57 7 171 145 180 159 158 154 151 103 155 154 141 126 149 95 350 351 91
140 117 173 147 137 127 119 131 144 181 306 183 170 170 184 176 126 135 143 145 135 146 149 146 139 150 167 176 187 149 98 36 323 127 95 166 126 126 115 101 131 139 161 134 130 232 326 319 15
260 120 136 187 144 148 157 158 185 222 59 236 213 182 182 176 132 134 131 134 135 137 138 146 142 159 158 156 158 171 193 162 282 124 120 116 128 117 81 83 157 138 103 75 16 45 19 262 222
261 217 149 164 162 161 190 139 203 180 89 193 214 190 179 146 134 138 139 137 123 136 147 140 140 148 137 151 166 183 191 207 243 145 136 127 136 87 79 116 113 90 103 155 153 74 166 354 187
238 224 142 167 164 149 132 166 175 148 132 193 211 188 170 149 138 142 142 134 129 141 143 141 142 146 149 141 151 178 177 171 131 124 146 153 156 115 111 120 93 85 120 261 107 50 326 238 243
256 222 153 139 151 113 141 152 177 108 80 273 214 174 158 150 136 144 140 131 134 142 138 129 130 141 133 140 147 158 167 142 197 148 172 160 164 156 164 138 165 110 146 162 26 25 358 330 180
259 269 63 62 53 36 128 129 169 160 158 251 304 168 158 139 141 149 144 140 144 146 137 127 131 141 172 116 173 128 93 125 157 173 175 159 163 174 188 179 190 168 203 152 44 38 353 343 297
246 227 155 189 89 68 120 81 189 175 149 280 287 302 167 161 158 157 156 149 148 149 145 138 152 163 156 130 103 71 62 34 68 102 135 167 161 189 175 163 176 152 199 174 230 73 59 349 328
246 177 121 135 119 158 233 170 237 192 235 266 293 331 183 153 156 160 158 150 154 160 150 140 158 179 149 149 128 135 136 143 8 161 166 168 169 174 144 132 113 110 88 43 303 17 83 74 14
249 137 141 145 138 115 212 127 217 152 178 219 260 287 283 169 169 183 164 161 162 160 161 147 161 170 161 167 148 133 136 118 133 31 152 158 167 174 167 137 125 119 104 158 0 40 68 64 61
278 220 148 120 88 266 212 147 201 166 183 174 252 248 252 182 184 198 181 164 163 159 155 154 158 174 176 156 148 135 161 157 108 185 167 159 189 210 181 155 152 145 77 247 279 79 64 51 54
270 208 229 124 127 241 190 182 150 142 145 156 252 266 253 235 176 202 183 159 163 164 163 162 160 169 175 168 156 142 152 164 183 183 187 170 135 88 211 166 158 154 170 245 268 103 70 342 71
265 193 169 136 246 244 146 124 144 132 145 154 161 301 2 264 38 23 3 96 170 167 166 167 167 164 167 186 174 145 146 157 192 194 194 163 174 136 294 181 168 187 177 188 217 157 203 308 332
300 237 223 277 276 104 121 87 105 133 140 145 138 115 47 23 15 26 29 19 286 147 167 170 171 176 165 176 187 176 164 172 199 216 196 168 138 146 32 147 174 209 201 192 191 227 279 316 269
54 299 359 336 290 30 134 143 141 162 146 109 83 65 92 30 49 70 57 34 346 89 87 66 63 25 239 172 175 191 182 196 211 207 165 132 164 168 204 166 233 223 214 180 170 235 280 256 270
288 311 310 123 149 179 158 106 295 122 114 112 92 80 79 76 81 80 73 53 345 60 81 85 76 51 21 9 333 194 194 202 226 233 155 154 174 174 190 198 201 227 200 172 168 193 225 219 227
256 267 247 132 289 75 104 112 360 111 109 108 108 109 96 103 106 101 92 85 57 55 91 83 84 62 20 332 319 274 190 187 203 214 212 150 169 193 200 217 219 205 226 184 190 201 210 207 222